ECHOSTAR 19 (41893 NORAD) Tracking and Keplerian Element Data

This shows tracking and keplerian element data for the satellite.

Feedback or suggestion? Click here.




ElementValue
Catalog41893
NameECHOSTAR 19
Epoch Orbit2732
Epoch Day159.97564483
Epoch Year2024
RAAN357.8187
Inclination0.016
Eccentricity0.0001092
Argument of Perigee90.2659
Mean Anonmoly62.8891
Mean Motion1.002716
Decay Rate-1.39E-06
L11 41893U 16079A 24159.97564483 -.00000139 00000+0 00000+0 0 9997
L22 41893 0.0160 357.8187 0001092 90.2659 62.8891 1.00271600 27321



Live tracking and technical data element details for ECHOSTAR 19 (NORAD 41893). ECHOSTAR 19 can be tracked NOW for your location showing map with azimuth and elevation plus other details from your city location.







IsCatalogInMostPopularTable: catalog: 41893, numindb: 912
Update: records affected: 1



GetName: 41893 ECHOSTAR 19

Hit Count: updated at: Tue, 17 Sep 2024 11:43:29 GMT